Tracking 19245 objects as of 18-Aug-2018
HD Live streaming from Space Station
objects crossing your sky now

FENGYUN 1C DEB

Track FENGYUN 1C DEB now!
10-day predictions


NORAD ID: 30360
Int'l Code: 1999-025ABX
Perigee: 829.9 km
Apogee: 882.9 km
Inclination: 99.0 °
Period: 101.9 minutes
Semi major axis: 7227 km
RCS: 0.0134 m2 (small)
Launch date: May 10, 1999
Source: People's Republic of China (PRC)
Launch site: Taiyaun Space Center, China (TSC)

Note: This is SATELLITE DEBRIS
aabbcc
Your satellite tracking list
Your tracking list is empty




NASA's NSSDC Master Catalog

Two Line Element Set (TLE):
1 30360U 99025ABX 18229.12340898 +.00000389 +00000-0 +23173-3 0  9993
2 30360 098.9681 271.4081 0036683 210.9432 214.4708 14.12958760595553
Source of the keplerian elements: AFSPC